Location: Darmstadt
(49.8706°N, 8.6494°E)
Time: 05:28:41
(UTC+01:00)

SL-4 R/B - Pass Details

Date: 31 October 2020
Orbit: 428 x 665 km, 51.6° (Epoch: 03 December)

Event Time Altitude Azimuth Distance (km) Brightness Sun altitude
Rises 18:15:59 0° 287° (WNW) 2,426 6.6 -12.1°
Reaches altitude 10° 18:18:03 10° 286° (WNW) 1,576 5.5 -12.4°
Maximum altitude 18:21:35 80° 200° (SSW) 478 1.7 -13.0°
Enters shadow 18:24:09 19° 115° (ESE) 1,199 3.2 -13.4°
